UWE-3

Last updated on Tue Jul 01 2025 00:03:06 GMT+0000 (Coordinated Universal Time)

1 39446U 13066AG 25181.31346837 .00002719 00000+0 25965-3 0 9992 2 39446 97.8245 132.1233 0054371 51.4348 309.1724 14.93034439625002
UTC large
Height (km)
Speed (km/s)
/
Latitude / Longitude
Inclination (degrees)
Orbital Period (minutes)
Azimuth
Elevation
Range (km)
Doppler Factor

Next 0 passes for location: London (51.5072 / 0.1276)

Sorry there are no passes over London.